TimeEST,TemperatureF,Dew PointF,Humidity,Sea Level PressureIn,VisibilityMPH,Wind Direction,Wind SpeedMPH,Gust SpeedMPH,PrecipitationIn,Events,Conditions,WindDirDegrees,DateUTC
12:15 AM,62.6,50.0,63,30.05,10.0,SW,8.1,-,N/A,,Overcast,220,2012-12-05 05:15:00
12:35 AM,64.4,50.0,59,30.05,10.0,SSW,4.6,-,N/A,,Overcast,210,2012-12-05 05:35:00
12:55 AM,62.6,50.0,63,30.04,10.0,SSW,6.9,-,N/A,,Overcast,210,2012-12-05 05:55:00
1:15 AM,62.6,50.0,63,30.04,10.0,SW,6.9,-,N/A,,Overcast,220,2012-12-05 06:15:00
1:35 AM,62.6,50.0,63,30.04,10.0,SW,4.6,-,N/A,,Mostly Cloudy,220,2012-12-05 06:35:00
1:55 AM,62.6,50.0,63,30.04,10.0,SW,5.8,-,N/A,,Scattered Clouds,220,2012-12-05 06:55:00
2:15 AM,60.8,50.0,68,30.04,10.0,SSW,5.8,-,N/A,,Scattered Clouds,210,2012-12-05 07:15:00
2:55 AM,60.8,50.0,68,30.04,10.0,SW,5.8,-,N/A,,Scattered Clouds,220,2012-12-05 07:55:00
3:15 AM,60.8,50.0,68,30.03,10.0,SW,4.6,-,N/A,,Mostly Cloudy,230,2012-12-05 08:15:00
3:35 AM,60.8,50.0,68,30.04,10.0,SW,5.8,-,N/A,,Scattered Clouds,230,2012-12-05 08:35:00
3:55 AM,60.8,50.0,68,30.03,10.0,SW,4.6,-,N/A,,Overcast,230,2012-12-05 08:55:00
4:15 AM,60.8,50.0,68,30.02,10.0,WSW,4.6,-,N/A,,Mostly Cloudy,240,2012-12-05 09:15:00
4:35 AM,59.0,48.2,67,30.02,10.0,SW,3.5,-,N/A,,Scattered Clouds,230,2012-12-05 09:35:00
4:55 AM,59.0,48.2,67,30.02,10.0,WSW,5.8,-,N/A,,Mostly Cloudy,240,2012-12-05 09:55:00
5:15 AM,59.0,48.2,67,30.02,10.0,SW,4.6,-,N/A,,Scattered Clouds,230,2012-12-05 10:15:00
5:35 AM,59.0,48.2,67,30.03,10.0,WSW,3.5,-,N/A,,Mostly Cloudy,240,2012-12-05 10:35:00
5:55 AM,59.0,48.2,67,30.04,10.0,WSW,3.5,-,N/A,,Mostly Cloudy,250,2012-12-05 10:55:00
6:15 AM,59.0,48.2,67,30.07,10.0,North,4.6,-,N/A,,Mostly Cloudy,360,2012-12-05 11:15:00
6:35 AM,57.2,50.0,77,30.08,10.0,North,3.5,-,N/A,,Overcast,10,2012-12-05 11:35:00
6:55 AM,55.4,50.0,82,30.10,10.0,NNE,4.6,-,N/A,,Overcast,20,2012-12-05 11:55:00
7:15 AM,55.4,50.0,82,30.11,10.0,North,4.6,-,0.01,,Overcast,10,2012-12-05 12:15:00
7:35 AM,55.4,50.0,82,30.11,10.0,North,4.6,-,0.03,,Overcast,360,2012-12-05 12:35:00
7:55 AM,55.4,50.0,82,30.13,7.0,Calm,Calm,-,0.05,,Overcast,0,2012-12-05 12:55:00
9:35 AM,55.4,51.8,88,30.16,10.0,Calm,Calm,-,N/A,,Overcast,0,2012-12-05 14:35:00
9:55 AM,55.4,48.2,77,30.16,10.0,Calm,Calm,-,N/A,,Overcast,0,2012-12-05 14:55:00
10:15 AM,55.4,46.4,72,30.16,10.0,Calm,Calm,-,N/A,,Mostly Cloudy,0,2012-12-05 15:15:00
10:35 AM,55.4,46.4,72,30.17,10.0,Calm,Calm,-,N/A,,Scattered Clouds,0,2012-12-05 15:35:00
10:55 AM,55.4,44.6,67,30.16,10.0,Calm,Calm,-,N/A,,Clear,0,2012-12-05 15:55:00
11:15 AM,57.2,46.4,67,30.16,10.0,Calm,Calm,-,N/A,,Clear,0,2012-12-05 16:15:00
11:35 AM,57.2,39.2,51,30.15,10.0,Calm,Calm,-,N/A,,Clear,0,2012-12-05 16:35:00
11:55 AM,57.2,41.0,55,30.15,10.0,Calm,Calm,-,N/A,,Clear,0,2012-12-05 16:55:00
12:15 PM,59.0,42.8,55,30.14,10.0,NW,4.6,-,N/A,,Clear,310,2012-12-05 17:15:00
12:35 PM,59.0,33.8,39,30.14,-9999.0,North,-9999.0,-,N/A,,Unknown,0,2012-12-05 17:35:00
12:55 PM,62.6,32.0,32,30.13,10.0,West,12.7,-,N/A,,Unknown,280,2012-12-05 17:55:00
1:15 PM,62.6,30.2,30,30.13,-9999.0,North,-9999.0,-,N/A,,Unknown,0,2012-12-05 18:15:00
1:35 PM,62.6,30.2,30,30.13,10.0,NNW,9.2,-,N/A,,Clear,340,2012-12-05 18:35:00
1:55 PM,62.6,30.2,30,30.12,10.0,WNW,6.9,-,N/A,,Clear,300,2012-12-05 18:55:00
2:15 PM,62.6,28.4,27,30.12,10.0,NW,9.2,16.1,N/A,,Clear,310,2012-12-05 19:15:00
2:35 PM,62.6,28.4,27,30.12,10.0,NW,8.1,-,N/A,,Clear,310,2012-12-05 19:35:00
3:15 PM,62.6,28.4,27,30.12,10.0,West,9.2,-,N/A,,Clear,280,2012-12-05 20:15:00
3:35 PM,62.6,28.4,27,30.12,10.0,NW,4.6,-,N/A,,Clear,310,2012-12-05 20:35:00
3:55 PM,60.8,28.4,29,30.13,10.0,NW,5.8,-,N/A,,Clear,310,2012-12-05 20:55:00
4:15 PM,60.8,28.4,29,30.13,10.0,WNW,3.5,-,N/A,,Clear,300,2012-12-05 21:15:00
4:35 PM,53.6,35.6,51,30.13,10.0,Calm,Calm,-,N/A,,Clear,0,2012-12-05 21:35:00
4:55 PM,48.2,37.4,66,30.13,10.0,Calm,Calm,-,N/A,,Clear,0,2012-12-05 21:55:00
5:15 PM,46.4,33.8,62,30.14,10.0,Calm,Calm,-,N/A,,Clear,0,2012-12-05 22:15:00
5:35 PM,44.6,33.8,66,30.15,10.0,Calm,Calm,-,N/A,,Clear,0,2012-12-05 22:35:00
5:55 PM,44.6,33.8,66,30.16,10.0,NE,4.6,-,N/A,,Clear,40,2012-12-05 22:55:00
6:15 PM,53.6,28.4,38,30.17,10.0,North,5.8,-,N/A,,Clear,10,2012-12-05 23:15:00
6:35 PM,51.8,28.4,41,30.19,10.0,NE,5.8,-,N/A,,Clear,50,2012-12-05 23:35:00
6:55 PM,51.8,28.4,41,30.19,10.0,North,6.9,-,N/A,,Clear,10,2012-12-05 23:55:00
7:15 PM,48.2,30.2,50,30.20,10.0,NE,9.2,-,N/A,,Clear,40,2012-12-06 00:15:00
7:35 PM,50.0,28.4,43,30.21,10.0,NNE,4.6,-,N/A,,Clear,20,2012-12-06 00:35:00
7:55 PM,48.2,28.4,46,30.22,10.0,North,6.9,-,N/A,,Clear,10,2012-12-06 00:55:00
8:15 PM,48.2,28.4,46,30.22,10.0,NNE,4.6,-,N/A,,Clear,20,2012-12-06 01:15:00
8:35 PM,46.4,28.4,50,30.23,10.0,North,8.1,-,N/A,,Clear,10,2012-12-06 01:35:00
8:55 PM,46.4,30.2,53,30.23,10.0,NNE,8.1,-,N/A,,Clear,20,2012-12-06 01:55:00
9:15 PM,44.6,30.2,57,30.24,10.0,North,6.9,-,N/A,,Clear,10,2012-12-06 02:15:00
9:35 PM,44.6,28.4,53,30.24,10.0,NNE,9.2,-,N/A,,Clear,30,2012-12-06 02:35:00
9:55 PM,44.6,28.4,53,30.24,10.0,NNE,10.4,16.1,N/A,,Clear,20,2012-12-06 02:55:00
10:15 PM,44.6,28.4,53,30.24,10.0,NNE,9.2,18.4,N/A,,Clear,20,2012-12-06 03:15:00
10:35 PM,42.8,28.4,57,30.25,10.0,NE,10.4,-,N/A,,Clear,40,2012-12-06 03:35:00
10:55 PM,42.8,28.4,57,30.25,10.0,NNE,10.4,-,N/A,,Clear,20,2012-12-06 03:55:00
11:15 PM,42.8,28.4,57,30.25,10.0,NNE,8.1,-,N/A,,Clear,30,2012-12-06 04:15:00
11:35 PM,42.8,28.4,57,30.25,10.0,NNE,11.5,-,N/A,,Clear,30,2012-12-06 04:35:00
11:55 PM,41.0,28.4,61,30.26,10.0,NNE,10.4,-,N/A,,Clear,30,2012-12-06 04:55:00